Regional Weather Roundup
Issued by NWS

Home | Current Version | Previous Version | Text Only | Print | Product List | Glossary On
Versions: 1 2 3 4 5 6 7 8 9 10 11 12 13 14 15 16 17 18 19 20 21 22 23 24 25 26 27 28 29 30 31 32 33 34 35 36 37 38 39 40 41 42 43 44 45 46 47 48 49 50
000
ASUS43 KMPX 202310
RWRMN
WEATHER ROUNDUP FOR MINNESOTA
NATIONAL WEATHER SERVICE TWIN CITIES/CHANHASSEN MN
600 PM CDT FRI OCT 20 2017


NOTE: "FAIR" INDICATES FEW OR NO CLOUDS BELOW 12,000 FEET WITH NO
SIGNIFICANT WEATHER AND/OR OBSTRUCTIONS TO VISIBILITY. N/A MEANS
CURRENT SKY AND/OR WEATHER CONDITIONS ARE NOT AVAILABLE.

MNZ060>063-068>070-210000-
   Twin Cities Metro

CITY           SKY/WX    TMP DP  RH WIND       PRES   REMARKS
TWIN CITIES    MOCLDY    75  45  34 S20G26    29.73S
ST PAUL        PTCLDY    71  45  39 S12       29.74S
CRYSTAL        PTCLDY    74  43  32 S17G28    29.70F
BLAINE         MOCLDY    75  45  33 SE17G23   29.71F
LAKEVILLE      CLOUDY    72  46  40 SE15G23   29.74S
EDEN PRAIRIE   CLEAR     74  46  36 S21G28    29.70F
SOUTH ST PAUL  PTCLDY    74  42  32 S10G16    29.73S
LAKE ELMO      FAIR      72  45  37 SE13      29.75S
$$
MNZ001>005-007-008-013>017-022>024-027-028-210000-
   Northwest Minnesota

CITY           SKY/WX    TMP DP  RH WIND       PRES   REMARKS
BEMIDJI        PTCLDY    72  51  48 S16G23    29.54S
HALLOCK        CLOUDY    73  50  43 S26G36    29.35F
ROSEAU         CLOUDY    75  54  46 S15G25    29.43S
WARROAD        PTCLDY    72  54  53 SE15      29.45S
THIEF RVR FALL PTCLDY    71  52  50 S14       29.45F
CROOKSTON      CLOUDY    73  54  49 S22G29    29.41F
FOSSTON        CLEAR     72  48  43 S24G32    29.47F
DETROIT LAKES  CLEAR     72  52  49 S17G24    29.53S
MOORHEAD       CLEAR     73  52  46 S24       29.45S
PARK RAPIDS    CLOUDY    73  51  46 S20G31    29.56F
MAHNOMEN       FAIR      72  53  50 S13G26    29.48S
$$
MNZ006-009>011-018-025>026-210000-
   North Central Minnesota

CITY           SKY/WX    TMP DP  RH WIND       PRES   REMARKS
BAUDETTE       CLEAR     72  49  44 SE18G25   29.50F
FLAG ISLAND    CLEAR     59  48  67 SE21      29.44F
INTL FALLS     CLEAR     73  46  38 S12G21    29.57F
WASKISH        PTCLDY    72  52  49 SE13G21   29.52F
BIG FORK       PTCLDY    72  48  43 S10G20    29.60F
LONGVILLE      CLEAR     72  48  43 S17       29.60F
GRAND RAPIDS   PTCLDY    72  49  44 S23G30    29.64F
CRANE LAKE     CLOUDY    70  45  40 S6        29.65S
ORR            PTCLDY    70  45  40 SE12      29.61F
COOK           PTCLDY    70  48  46 S8        29.66S
WALKER         FAIR      71  49  45 S14G20    29.56F
$$
MNZ012-019>021-037-210000-
   Northeast Minnesota

CITY           SKY/WX    TMP DP  RH WIND       PRES   REMARKS
DULUTH         CLEAR     65  47  52 S9        29.72F
ELY            PTCLDY    70  45  40 S10       29.69F
HIBBING        PTCLDY    68  47  46 SE8       29.66F
EVELETH        PTCLDY    69  33  25 S7        29.69F
DULUTH HARBOR  PTCLDY    55  54  94 N9        29.71F
TWO HARBORS    PTCLDY    63  52  67 NE3       29.72S
SILVER BAY     PTCLDY    59  48  67 NE3       29.73S
GRAND MARAIS     N/A     53  48  83 NE6       29.76F
G MARAIS ARPRT CLOUDY    59  45  58 S5        29.79F
$$
MNZ029>031-032-039>041-046>048-054>057-064-210000-
   West Central Minnesota

CITY           SKY/WX    TMP DP  RH WIND       PRES   REMARKS
FERGUS FALLS   CLEAR     72  54  53 S17       29.51S
WHEATON        MOCLDY    73  52  46 SE16G23   29.50F
MORRIS         CLEAR     72  54  53 S20       29.53F
ALEXANDRIA     CLEAR     73  52  47 S20       29.59F
ELBOW LAKE     FAIR      70  54  56 S16       29.54S
WADENA         CLEAR     72  52  49 S15G25    29.56S
GLENWOOD       CLEAR     72  52  49 S18G26    29.60S
APPLETON       PTCLDY    75  52  43 S12G26    29.54F
BENSON         CLEAR     73  52  46 S16       29.58F
ORTONVILLE     MOCLDY    73  54  49 N18G25    29.52F
MADISON        PTCLDY    77  54  44 S20G25    29.54F
WILLMAR        FAIR      75  52  43 S14G28    29.62F
$$
MNZ033>034-036-042>043-049>051-058-059-210000-
   Central Minnesota

CITY           SKY/WX    TMP DP  RH WIND       PRES   REMARKS
ST CLOUD       CLEAR     73  49  42 S16       29.66S
SAUK CENTRE    FAIR      72  51  48 S20G31    29.61F
PAYNESVILLE    CLEAR     73  51  44 S15G22    29.64F
AITKIN         CLEAR     68  48  49 S14       29.63F
PINE RIVER     CLOUDY    70  50  49 S12G22    29.64S
BRAINERD       PTCLDY    72  50  45 S17G30    29.63F
STAPLES        CLEAR     72  48  43 S16G22    29.59S
LONG PRAIRIE   FAIR      70  50  49 SE16G24   29.62S
LITTLE FALLS   CLOUDY    72  41  33 SE13G18   29.64S
LITCHFIELD     CLEAR     73  48  40 S9        29.66S
BUFFALO        CLOUDY    73  46  37 S13G20    29.69F
MAPLE LAKE     CLOUDY    73  50  44 S12G17    29.68F
HUTCHINSON     CLOUDY    74  51  44 S12G25    29.68F
$$
MNZ037-044-045-052-053-210000-
   East Central Minnesota

CITY           SKY/WX    TMP DP  RH WIND       PRES   REMARKS
PRINCETON      PTCLDY    73  48  40 SE12G22   29.69S
MORA           PTCLDY    70  45  40 S12G18    29.71S
CAMBRIDGE      MOCLDY    75  54  46 SE7       29.70F
RUSH CITY      PTCLDY    71  47  43 S9        29.72S
MOOSE LAKE     CLEAR     70  45  40 S9G21     29.68F
HINCKLEY       FAIR      72  48  43 SE12      29.71F
CLOQUET        PTCLDY    72  39  30 S9G20     29.70F
MCGREGOR       CLEAR     72  46  40 S14G22    29.67S
$$
MNZ071>073-080-081-089-090-097-098-210000-
   Southwest Minnesota

CITY           SKY/WX    TMP DP  RH WIND       PRES   REMARKS
MONTEVIDEO     CLEAR     75  52  43 S12G22    29.57F
GRANITE FALLS  CLEAR     75  53  45 SE16G30   29.60F
CANBY          PTCLDY    75  53  47 S17G31    29.56S
MARSHALL       CLEAR     73  54  51 S24G30    29.57F
REDWOOD FALLS  CLEAR     73  50  44 S20G32    29.62F
OLIVIA         CLEAR     73  52  46 S18G31    29.63S
PIPESTONE      PTCLDY    72  54  53 S21G32    29.60F
WORTHINGTON    PTCLDY    72  55  55 S20G32    29.66F
JACKSON        PTCLDY    70  50  49 S18G24    29.71S
TRACY          CLEAR     74  55  50 S20G25    29.61F
SLAYTON        PTCLDY    73  54  52 S26G38    29.63F
$$
MNZ065>067-074>077-082>085-091>093-210000-
   South Central Minnesota

CITY           SKY/WX    TMP DP  RH WIND       PRES   REMARKS
MANKATO        CLEAR     72  47  40 S16G24    29.72F
NEW ULM        CLEAR     72  48  43 S17G25    29.68F
ST JAMES       CLEAR     72  48  43 SE21G26   29.70F
FAIRMONT       PTCLDY    71  50  47 S26G33    29.71F
GLENCOE        CLEAR     74  46  35 S12G20    29.68S
FARIBAULT      PTCLDY    72  46  40 S17G23    29.76S
OWATONNA       CLEAR     72  48  43 S21G26    29.76F
WASECA         CLEAR     72  46  40 S14G22    29.76F
$$
MNZ078>079-086>088-094>096-210000-
   Southeast Minnesota

CITY           SKY/WX    TMP DP  RH WIND       PRES   REMARKS
ROCHESTER      CLOUDY    68  46  45 S17G29    29.82F
RED WING       PTCLDY    73  37  27 S10G20    29.77S
STANTON        CLOUDY    73  42  33 S17G26    29.75S
DODGE CENTER   CLOUDY    70  43  37 S20       29.80S
WINONA         CLOUDY    73  43  33 S6        29.84S
AUSTIN         CLOUDY    70  45  40 S13       29.80F
PRESTON        CLOUDY    68  45  43 S16G25    29.85F
$$
ABBREVIATIONS USED IN REMARKS
   TC - TEMPERATURES IN CELSIUS
  WCI - WIND CHILL INDEX
   HX - HEAT INDEX
  VSB - VISIBILITY
$$




USA.gov is the U.S. government's official web portal to all federal, state and local government web resources and services.